[[{"header":{"parameterUnit":"m.s-1","parameterCategory":1,"la1":30.2991,"la2":30.254,"lo1":-89.0895,"lo2":-89.0444,"dy":0.0017,"dx":0.0017,"nx":28,"ny":28,"refTime":"2023-10-08T03:00:00:Z","depth":0,"parameterNumber":2,"parameterNumberName":"U-component_of_WINDS"},"data":[0,0,0,0,0,0,0,0,0,0,0,0,0,0,0,0,0,0,0,0,0,0,0,0,0,0,0,0,0,0,0,0,0,0,0,0,0,0,0,0,0,0,0,0,0,0,0,0,0,0,0,0,0,0,0,0,0,0,-0.9638,-0.9639,0,-0.9784,-0.9785,-0.9787,-0.9879,-0.988,-0.988,-0.9881,-1.0027,-1.003,-1.0034,0,0,0,0,0,0,0,0,0,0,0,0,0,-0.9436,-0.944,-0.9638,-0.964,-0.9641,-0.9783,-0.9785,-0.9787,-0.9879,-0.988,-0.9881,-0.9881,-1.0026,-1.003,-1.0034,0,0,0,0,0,0,0,0,0,0,0,0,0,-0.9547,-0.9441,-0.9637,-0.9704,-0.9712,-0.9783,-0.9785,-0.9788,-0.9879,-0.988,-0.9881,-0.9881,-1.0025,-1.0029,-1.0034,-1.0049,0,0,-1.005,-1.0052,0,0,0,0,0,0,0,0,-0.954,-0.9554,-0.9693,-0.97,-0.9708,-0.9814,-0.9768,-0.9875,-0.9879,-0.9815,-0.9881,-0.9882,-0.9955,-0.9966,-0.9992,-1.0056,-1.0062,-1.005,-1.0054,-1.0056,-1.0057,0,0,0,0,0,0,0,-0.9533,-0.9548,-0.9695,-0.9695,-0.9704,-0.9726,-0.9743,-0.9789,-0.9879,-0.9821,-0.9828,-0.9844,-0.996,-0.9986,-0.9996,-1.0065,-1.005,-1.0055,-1.0058,-1.006,-1.0148,-1.0148,0,0,0,0,0,0,-0.9515,-0.9541,-0.9691,-0.97,-0.9625,-0.9729,-0.9748,-0.9779,-0.9879,-0.9895,-0.9843,-0.9848,-0.9977,-0.999,-1.0001,-1.0025,-1.0056,-1.006,-1.0063,-1.0149,-1.0148,-1.0147,0,0,0,0,0,0,-0.951,-0.9527,-0.9685,-0.9623,-0.9644,-0.9732,-0.9766,-0.9782,-0.9809,-0.9896,-0.9912,-0.9854,-0.9979,-0.9994,-1.0037,-1.0031,-1.0063,-1.0067,-1.015,-1.0149,-1.0148,-1.0072,0,0,0,0,0,0,-0.9504,-0.9525,-0.9532,-0.9622,-0.9647,-0.9719,-0.9766,-0.9784,-0.9818,-0.9825,-0.991,-0.9925,-0.998,-1.0029,-1.0042,-1.0039,-1.0071,-1.0151,-1.0149,-1.0148,-1.0075,-1.0068,-1.0063,0,0,0,0,0,-0.9496,-0.9504,-0.9532,-0.955,-0.9658,-0.9718,-0.9733,-0.9797,-0.9817,-0.9824,-0.988,-0.9922,-1.003,-1.0032,-1.0048,-1.0046,-1.0151,-1.015,-1.0148,-1.0078,-1.007,-1.0063,0,0,0,0,0,0,-0.9411,-0.9517,-0.9549,-0.9587,-0.9643,-0.9734,-0.9745,-0.9786,-0.9837,-0.9841,-0.9918,-0.9937,-0.9972,-1.0014,-1.0014,-1.0066,-1.0095,-1.0097,-1.0037,-1.003,-1.0023,-1.0012,-1.0075,0,0,0,0,0,-0.9396,-0.9437,-0.9528,-0.9552,-0.9579,-0.9657,-0.9685,-0.973,-0.9791,-0.9815,-0.9874,-0.993,-0.9977,-1.0006,-1.0053,-1.0082,-1.0102,-1.0089,-1.0082,-1.0076,-1.0076,-1.0094,-1.0089,-1.0142,-1.0142,-1.0142,0,0,-0.9366,-0.943,-0.9451,-0.9536,-0.9585,-0.9624,-0.9676,-0.9716,-0.9745,-0.982,-0.9865,-0.991,-0.9978,-1.0013,-1.0032,-1.0049,-1.0066,-1.0074,-1.0069,-1.0073,-1.0092,-1.0087,-1.0082,-1.0141,-1.0141,-1.0142,0,0,-0.9332,-0.9385,-0.9411,-0.9458,-0.9532,-0.9584,-0.959,-0.9675,-0.9708,-0.9754,-0.9811,-0.9847,-0.9926,-0.9972,-1.0005,-0.9989,-1.0029,-1.0002,-0.9968,-0.9985,-0.998,-0.9977,-0.997,-0.9967,-1.0002,-1.0002,-1.0002,0,-0.9286,-0.9348,-0.9418,-0.9455,-0.949,-0.9561,-0.9587,-0.963,-0.9715,-0.9737,-0.9756,-0.9856,-0.9907,-0.9954,-0.995,-0.9975,-0.9984,-0.9992,-0.9976,-0.9973,-0.9971,-0.9965,-0.9963,-0.9998,-0.9999,-0.9999,-0.9999,0,-0.9287,-0.9329,-0.9341,-0.9422,-0.9459,-0.949,-0.9564,-0.9593,-0.9634,-0.9684,-0.9729,-0.9793,-0.9855,-0.987,-0.991,-0.9922,-0.9931,-0.9961,-0.9993,-0.9961,-0.9957,-0.9955,-0.9993,-0.9994,-0.9995,-0.9996,0,0,-0.9202,-0.9322,-0.9325,-0.9362,-0.9449,-0.9482,-0.9516,-0.9577,-0.96,-0.9656,-0.9686,-0.9751,-0.978,-0.9818,-0.9865,-0.9879,-0.9861,-0.9909,-0.9911,-0.9897,-0.9878,-0.9853,-0.985,-0.9889,-0.9889,-0.9889,-0.9872,0,-0.918,-0.9245,-0.9309,-0.9351,-0.9391,-0.9459,-0.9489,-0.9544,-0.9591,-0.9631,-0.9683,-0.9728,-0.9763,-0.9787,-0.9804,-0.9859,-0.9858,-0.9862,-0.9916,-0.9917,-0.9896,-0.9848,-0.9822,-0.9803,-0.9871,-0.987,-0.987,0,-0.9163,-0.9217,-0.9263,-0.9345,-0.9364,-0.9389,-0.9451,-0.9488,-0.9552,-0.9586,-0.9628,-0.9678,-0.9716,-0.9744,-0.9797,-0.9798,-0.9824,-0.9854,-0.9855,-0.9862,-0.9891,-0.9852,-0.9799,-0.9795,-0.9869,-0.9869,-0.9869,0,-0.9095,-0.9179,-0.9218,-0.9248,-0.9345,-0.9361,-0.9402,-0.9467,-0.95,-0.9553,-0.9575,-0.9631,-0.9662,-0.9704,-0.9767,-0.9782,-0.9813,-0.9847,-0.9841,-0.9839,-0.9844,-0.9843,-0.9792,-0.9862,-0.9862,-0.9862,-0.9862,0,-0.9063,-0.9088,-0.9188,-0.9212,-0.9242,-0.9315,-0.9342,-0.939,-0.9447,-0.948,-0.9542,-0.9572,-0.9654,-0.9693,-0.9743,-0.9779,-0.9792,-0.9819,-0.9832,-0.9813,-0.981,-0.9831,-0.9833,-0.9861,-0.9862,-0.9862,-0.9862,0,-0.8992,-0.906,-0.9107,-0.9195,-0.9218,-0.9236,-0.9312,-0.9336,-0.9388,-0.9429,-0.9443,-0.9522,-0.9572,-0.9639,-0.9709,-0.9743,-0.9771,-0.9792,-0.975,-0.9757,-0.9748,-0.9747,-0.9708,-0.9707,-0.9777,-0.9777,-0.9776,0,-0.8967,-0.8988,-0.9079,-0.9106,-0.9146,-0.9188,-0.9222,-0.9295,-0.9328,-0.9402,-0.9418,-0.9472,-0.9519,-0.9595,-0.9658,-0.9712,-0.9734,-0.9717,-0.9742,-0.9723,-0.9733,-0.973,-0.9732,-0.971,-0.9709,-0.9708,-0.9707,0,-0.8914,-0.8947,-0.8994,-0.9053,-0.9091,-0.9141,-0.9193,-0.9211,-0.9295,-0.9328,-0.938,-0.9417,-0.9488,-0.9541,-0.9603,-0.9645,-0.9689,-0.9699,-0.97,-0.9681,-0.9655,-0.9668,-0.9732,-0.9699,-0.97,-0.97,-0.9701,-0.9701,-0.8865,-0.8887,-0.8954,-0.9004,-0.9052,-0.9099,-0.9127,-0.9182,-0.9226,-0.9291,-0.9331,-0.938,-0.9444,-0.9532,-0.9572,-0.9611,-0.9629,-0.9631,-0.9632,-0.9631,-0.9624,-0.9649,-0.9623,-0.9623,-0.9623,-0.9624,-0.9624,0,-0.8815,-0.8862,-0.8907,-0.8979,-0.9018,-0.9058,-0.9118,-0.9147,-0.919,-0.9246,-0.9292,-0.9351,-0.9402,-0.947,-0.9526,-0.9545,-0.9566,-0.9557,-0.9556,-0.9564,-0.9605,-0.9598,-0.9538,-0.9538,-0.9538,-0.9538,-0.9538,-0.9538,-0.8793,-0.8832,-0.8873,-0.8935,-0.8982,-0.9032,-0.9062,-0.9106,-0.9151,-0.9214,-0.9258,-0.9302,-0.9363,-0.9424,-0.9473,-0.9492,-0.9509,-0.9493,-0.9517,-0.9554,-0.9562,-0.9569,-0.9562,-0.9496,-0.9496,-0.9473,-0.9473,-0.9473]},{"header":{"parameterUnit":"m.s-1","parameterCategory":1,"la1":30.2991,"la2":30.254,"lo1":-89.0895,"lo2":-89.0444,"dy":0.0017,"dx":0.0017,"nx":28,"ny":28,"refTime":"2023-10-08T03:00:00:Z","depth":0,"parameterNumber":3,"parameterNumberName":"V-component_of_WINDS"},"data":[0,0,0,0,0,0,0,0,0,0,0,0,0,0,0,0,0,0,0,0,0,0,0,0,0,0,0,0,0,0,0,0,0,0,0,0,0,0,0,0,0,0,0,0,0,0,0,0,0,0,0,0,0,0,0,0,0,0,-1.5393,-1.5393,0,-1.5403,-1.5403,-1.5403,-1.537,-1.5369,-1.5368,-1.5367,-1.538,-1.5382,-1.5383,0,0,0,0,0,0,0,0,0,0,0,0,0,-1.5349,-1.535,-1.5393,-1.5393,-1.5394,-1.5403,-1.5403,-1.5403,-1.537,-1.5369,-1.5367,-1.5366,-1.538,-1.5381,-1.5383,0,0,0,0,0,0,0,0,0,0,0,0,0,-1.5364,-1.535,-1.5393,-1.5378,-1.5377,-1.5403,-1.5403,-1.5403,-1.537,-1.5368,-1.5367,-1.5366,-1.5379,-1.5381,-1.5383,-1.5426,0,0,-1.5389,-1.539,0,0,0,0,0,0,0,0,-1.5363,-1.5366,-1.538,-1.5379,-1.5378,-1.5383,-1.5392,-1.5411,-1.537,-1.5373,-1.5367,-1.5365,-1.5383,-1.5384,-1.539,-1.5427,-1.5427,-1.5389,-1.5391,-1.5391,-1.5392,0,0,0,0,0,0,0,-1.5362,-1.5365,-1.5397,-1.538,-1.5379,-1.5371,-1.5372,-1.5396,-1.5386,-1.5372,-1.537,-1.5371,-1.5382,-1.5388,-1.539,-1.5428,-1.5389,-1.5391,-1.5392,-1.5393,-1.55,-1.5502,0,0,0,0,0,0,-1.5363,-1.5365,-1.5397,-1.5398,-1.5366,-1.5373,-1.5374,-1.5383,-1.5386,-1.5385,-1.5373,-1.537,-1.5385,-1.5388,-1.539,-1.5441,-1.5391,-1.5393,-1.5394,-1.5499,-1.5501,-1.5503,0,0,0,0,0,0,-1.5362,-1.5366,-1.5397,-1.538,-1.5384,-1.5376,-1.5386,-1.5384,-1.539,-1.5386,-1.5385,-1.538,-1.5384,-1.5387,-1.5417,-1.5441,-1.5394,-1.5396,-1.5497,-1.5499,-1.5502,-1.5542,0,0,0,0,0,0,-1.5361,-1.5366,-1.5382,-1.5381,-1.5385,-1.5423,-1.5388,-1.5385,-1.5393,-1.5389,-1.5393,-1.5392,-1.5383,-1.5414,-1.5419,-1.5442,-1.5397,-1.5495,-1.5498,-1.5501,-1.5539,-1.5546,-1.5552,0,0,0,0,0,-1.5359,-1.5393,-1.5383,-1.5387,-1.5404,-1.5424,-1.5426,-1.5414,-1.5395,-1.5411,-1.5409,-1.5392,-1.5437,-1.5418,-1.5423,-1.5447,-1.5493,-1.5497,-1.5501,-1.5536,-1.5544,-1.5551,0,0,0,0,0,0,-1.5398,-1.5393,-1.5381,-1.5415,-1.542,-1.5418,-1.5438,-1.5424,-1.5435,-1.5431,-1.5417,-1.5418,-1.5451,-1.5452,-1.543,-1.5489,-1.5462,-1.5467,-1.5487,-1.5495,-1.5501,-1.5501,-1.5399,0,0,0,0,0,-1.5411,-1.5426,-1.5421,-1.5452,-1.5455,-1.5446,-1.5455,-1.5445,-1.545,-1.5452,-1.5452,-1.5458,-1.5474,-1.5484,-1.5498,-1.5538,-1.5539,-1.5558,-1.5564,-1.5569,-1.5574,-1.5596,-1.5604,-1.5515,-1.5515,-1.5515,0,0,-1.5437,-1.5436,-1.5447,-1.546,-1.5463,-1.548,-1.5448,-1.5468,-1.5482,-1.5456,-1.5483,-1.5483,-1.5489,-1.5524,-1.554,-1.5526,-1.5599,-1.5574,-1.5579,-1.558,-1.56,-1.5609,-1.5616,-1.5517,-1.5517,-1.5517,0,0,-1.5493,-1.5494,-1.552,-1.5523,-1.5526,-1.552,-1.5526,-1.5526,-1.5525,-1.5552,-1.5533,-1.5549,-1.5576,-1.5581,-1.5587,-1.5645,-1.5631,-1.565,-1.5685,-1.5706,-1.5713,-1.5719,-1.574,-1.5748,-1.5655,-1.5655,-1.5655,0,-1.5526,-1.555,-1.5535,-1.5556,-1.5563,-1.5538,-1.5565,-1.5569,-1.5578,-1.5583,-1.5568,-1.5601,-1.5604,-1.5639,-1.5653,-1.5659,-1.5667,-1.565,-1.5713,-1.5719,-1.5724,-1.5744,-1.5752,-1.5658,-1.5657,-1.5657,-1.5657,0,-1.559,-1.5607,-1.5628,-1.5635,-1.5644,-1.5668,-1.5658,-1.5669,-1.5658,-1.5654,-1.5682,-1.5684,-1.5698,-1.5706,-1.5696,-1.5741,-1.5732,-1.5715,-1.5688,-1.5736,-1.5754,-1.5762,-1.5661,-1.566,-1.5659,-1.5659,0,0,-1.5672,-1.567,-1.5678,-1.5681,-1.5683,-1.5697,-1.572,-1.5732,-1.5742,-1.5749,-1.5768,-1.5791,-1.5775,-1.5783,-1.5773,-1.5792,-1.5838,-1.5772,-1.5772,-1.5785,-1.5887,-1.5901,-1.591,-1.5828,-1.5829,-1.583,-1.5887,0,-1.5728,-1.5765,-1.5752,-1.5791,-1.5807,-1.5784,-1.5804,-1.5808,-1.5805,-1.5819,-1.5816,-1.5832,-1.581,-1.5814,-1.5831,-1.5829,-1.5858,-1.5824,-1.5847,-1.5848,-1.5846,-1.5919,-1.5933,-1.5987,-1.5894,-1.5895,-1.5896,0,-1.5798,-1.5806,-1.5846,-1.5845,-1.5851,-1.587,-1.588,-1.5893,-1.5898,-1.5894,-1.5901,-1.5888,-1.5911,-1.5884,-1.5916,-1.5893,-1.5902,-1.5902,-1.5904,-1.5906,-1.5875,-1.5924,-1.6004,-1.6012,-1.5907,-1.5907,-1.5906,0,-1.5854,-1.5875,-1.5902,-1.5905,-1.5905,-1.5918,-1.5919,-1.5921,-1.5929,-1.5939,-1.5944,-1.5957,-1.5964,-1.5974,-1.5965,-1.5946,-1.5999,-1.5971,-1.5998,-1.5998,-1.6011,-1.601,-1.6093,-1.6015,-1.6015,-1.6015,-1.6015,0,-1.5918,-1.5943,-1.5927,-1.5943,-1.5972,-1.5957,-1.5985,-1.5984,-1.5986,-1.6003,-1.5984,-1.6,-1.5987,-1.6002,-1.5995,-1.6023,-1.6027,-1.6025,-1.6023,-1.6027,-1.6028,-1.6033,-1.6029,-1.6017,-1.6017,-1.6016,-1.6016,0,-1.5986,-1.5975,-1.6003,-1.6,-1.6,-1.6021,-1.6018,-1.6034,-1.6029,-1.605,-1.6054,-1.6047,-1.6064,-1.6055,-1.6074,-1.6069,-1.6106,-1.6098,-1.6104,-1.6102,-1.613,-1.6128,-1.622,-1.6232,-1.6146,-1.6146,-1.6147,0,-1.6027,-1.6046,-1.6045,-1.6054,-1.6055,-1.607,-1.6078,-1.6064,-1.6073,-1.6079,-1.6095,-1.611,-1.6121,-1.615,-1.6147,-1.616,-1.6154,-1.6185,-1.6156,-1.6159,-1.6155,-1.6154,-1.6156,-1.6191,-1.6192,-1.6193,-1.6194,0,-1.6102,-1.6096,-1.6108,-1.6117,-1.6127,-1.6135,-1.614,-1.6149,-1.6135,-1.6147,-1.6163,-1.6172,-1.619,-1.6206,-1.6217,-1.6219,-1.6205,-1.6203,-1.621,-1.6215,-1.6217,-1.6217,-1.612,-1.6201,-1.62,-1.62,-1.62,-1.6199,-1.6159,-1.6174,-1.6175,-1.6189,-1.6192,-1.6198,-1.6212,-1.6208,-1.6221,-1.6234,-1.6225,-1.6244,-1.6249,-1.6263,-1.6267,-1.6283,-1.627,-1.6281,-1.6283,-1.6286,-1.629,-1.6214,-1.6285,-1.6285,-1.6284,-1.6284,-1.6284,0,-1.6233,-1.6232,-1.6245,-1.6253,-1.6264,-1.6247,-1.6253,-1.6264,-1.6281,-1.6285,-1.6296,-1.6316,-1.633,-1.6328,-1.6342,-1.6355,-1.6349,-1.6359,-1.6359,-1.636,-1.63,-1.6293,-1.6364,-1.6364,-1.6364,-1.6364,-1.6364,-1.6364,-1.6273,-1.6299,-1.6293,-1.632,-1.632,-1.6338,-1.6342,-1.6348,-1.6351,-1.6373,-1.6385,-1.6383,-1.6385,-1.6398,-1.6412,-1.6411,-1.6417,-1.643,-1.6427,-1.6372,-1.6364,-1.6356,-1.6349,-1.6432,-1.6432,-1.6485,-1.6486,-1.6486]}]]